Back to catalog

ATLAS 5 CENTAUR DEB

LostHEO
NORAD 52043·DEBRIS·🇺🇸 United States

Launched Oct 17, 2018 from Cape Canaveral Space Force Station

Loading…

Next Passes (next 24 hours)

TLE

StaleSource: Space-Track

Epoch: Aug 4, 2024, 14:13 UTC

1 52043U 18079GM  24217.59265193 -.00000072  00000-0  00000+0 0  9994
2 52043  10.6880 130.4192 4399245 138.7018 264.4071  1.73935675 19014

Track ATLAS 5 CENTAUR DEB in real time with AllMySat

Download on the App Store